GEFSMW_500_meanwind_078.txt.gz
Wind_Speed
12 15 15 14 14 13 11 10 8 7 6 4 3 2 3 4 5 6 7 7 7 8 8 8 9 9 10 10 10 11 12 12 13 13 13 13 13 14 14 15 16 17 18
10 13 14 15 15 13 12 10 9 8 6 4 3 2 2 3 4 6 6 7 7 8 8 9 9 10 10 10 11 11 12 12 13 13 13 13 14 14 15 15 16 17 18
9 11 13 13 15 14 12 9 9 7 6 4 3 2 1 2 4 4 5 6 6 7 8 8 9 10 11 11 12 12 13 13 14 14 14 15 15 15 15 16 17 17 18
7 9 9 11 12 12 11 10 10 8 6 5 4 3 2 2 3 3 4 5 6 7 7 8 9 11 12 12 13 13 13 14 14 15 16 16 16 17 17 17 18 18 19
6 7 7 8 9 10 10 11 10 8 6 5 5 3 2 2 3 3 4 5 5 6 8 9 10 11 12 13 14 14 15 15 16 16 17 18 18 19 19 20 20 20 21
5 6 6 7 9 9 9 10 9 8 7 6 5 4 3 3 3 4 4 5 6 7 8 9 11 12 13 14 15 16 16 17 17 18 18 19 19 20 21 22 22 23 23
3 4 6 6 8 8 9 9 8 8 7 6 5 5 4 4 4 5 5 6 7 8 9 10 11 13 14 15 16 18 19 19 19 19 19 20 20 20 21 22 23 24 26
2 3 5 6 6 7 8 8 8 8 8 7 7 6 6 6 6 6 7 7 8 9 11 12 13 14 16 17 18 20 21 22 22 21 21 21 21 21 22 23 24 25 26
2 4 5 6 7 8 8 9 9 9 9 8 8 8 7 7 7 8 9 9 10 11 13 14 15 17 18 19 21 22 23 24 24 24 23 23 23 23 23 24 24 26 27
6 6 7 7 8 9 10 10 10 10 10 10 10 9 9 9 10 10 11 12 13 14 15 17 18 19 20 21 22 23 25 25 25 25 24 24 24 25 25 25 25 26 27
9 9 9 9 10 11 11 11 11 12 12 12 11 11 11 11 12 12 13 14 15 16 18 19 20 21 22 23 24 25 26 26 26 26 27 27 27 27 26 26 27 27 27
11 11 11 11 12 12 12 12 13 13 14 13 13 13 13 14 14 15 16 17 18 19 20 21 21 23 24 25 26 27 28 28 28 28 28 28 29 29 28 29 29 29 29
13 13 13 13 13 13 13 13 14 15 15 15 15 15 16 16 16 17 18 19 20 21 22 23 24 25 26 27 28 29 30 30 30 30 30 30 30 31 31 31 31 31 31
15 15 14 14 14 14 15 15 15 16 17 17 17 18 18 19 19 20 21 22 23 24 25 26 26 27 28 29 30 30 31 31 32 32 32 32 32 32 33 33 33 33 32
16 16 16 16 16 16 16 16 17 18 18 19 19 20 21 21 22 23 24 25 26 26 27 28 28 29 30 31 32 33 33 33 34 34 34 34 34 34 34 34 34 34 34
18 18 18 18 17 18 18 18 18 19 20 20 21 21 22 23 24 25 26 27 28 28 29 30 31 32 33 33 34 34 35 35 36 36 36 35 35 35 35 35 35 35 35
20 20 20 20 19 19 19 20 20 20 21 22 22 24 25 26 27 28 28 29 30 31 32 32 33 34 35 36 36 36 37 37 37 37 37 37 37 36 36 35 36 36 36
21 21 22 22 21 21 21 20 21 22 23 24 25 26 27 28 29 30 31 32 33 33 34 35 36 36 38 38 38 39 39 39 39 39 38 39 39 38 37 36 36 37 37
23 24 25 25 24 24 23 23 24 24 24 25 26 28 29 30 31 32 33 34 35 36 37 38 39 39 40 40 41 41 40 40 41 41 41 40 40 40 39 37 37 37 38
25 26 27 27 26 26 26 26 26 26 27 28 29 31 32 32 33 35 36 37 38 39 40 41 41 42 42 43 43 44 43 43 42 43 43 42 41 41 40 39 39 38 38
25 26 27 27 27 27 26 26 27 28 30 32 33 33 34 35 36 38 39 41 42 43 43 43 44 45 45 45 46 46 46 46 45 45 44 44 44 43 42 41 40 39 38
24 25 26 27 27 27 27 28 29 30 32 33 34 36 37 38 40 41 42 44 45 46 46 46 47 48 48 48 49 49 49 49 48 46 46 46 46 45 43 42 41 40 39
23 25 26 27 27 28 29 31 32 34 35 36 37 39 40 41 42 44 45 46 48 48 49 50 51 51 50 51 51 52 52 51 50 49 48 47 47 47 45 43 42 41 40
23 24 26 26 27 28 30 32 34 36 37 38 39 41 42 43 45 46 48 49 49 51 53 54 54 54 53 53 54 55 54 54 54 53 51 50 49 48 46 45 44 43 42
24 25 26 26 28 30 32 33 35 37 38 40 41 43 44 46 47 49 51 52 54 55 56 56 57 57 57 56 57 57 57 57 56 56 55 53 51 49 47 46 45 44 43
26 26 28 29 31 32 34 36 37 39 41 42 44 45 47 48 50 52 53 55 56 57 58 59 60 60 60 59 60 60 59 59 59 58 56 54 53 51 49 47 46 44 43

GEFSMW_500_meanwind_084.txt.gz
Wind_Speed
10 14 16 17 19 20 19 19 16 15 13 10 9 7 6 4 3 2 1 0 1 2 2 3 4 5 5 6 6 6 6 6 6 6 6 7 7 8 9 10 11 12 13
7 11 15 16 17 18 19 19 17 15 13 11 9 8 6 5 4 3 2 1 1 2 2 3 4 5 6 6 6 6 6 7 7 7 7 7 8 8 9 10 11 12 13
6 9 13 15 17 17 18 18 15 15 13 11 10 8 7 5 4 4 3 2 1 2 2 2 4 5 5 6 6 7 7 7 8 8 8 8 8 9 10 11 11 13 14
3 7 12 14 16 17 17 17 16 14 13 12 10 9 8 6 5 4 3 2 1 1 1 1 3 4 5 5 6 7 7 8 9 9 9 10 10 11 11 12 13 13 14
1 5 10 13 15 16 16 16 15 14 13 11 11 9 8 7 6 5 4 3 2 2 1 1 2 3 4 5 6 7 9 10 11 11 11 11 12 12 12 13 14 14 15
1 2 6 11 13 15 15 15 15 14 13 12 11 10 9 8 6 6 5 5 4 4 4 3 4 4 5 6 7 8 10 11 12 13 13 13 13 14 14 14 15 15 15
3 1 3 7 10 13 15 15 15 14 13 12 11 10 9 8 8 7 7 7 6 6 6 6 6 6 7 8 9 10 12 13 14 14 14 15 15 15 15 16 16 16 17
3 2 2 5 7 10 12 13 14 14 13 13 12 11 10 10 9 9 9 9 9 8 8 8 8 9 9 10 11 12 13 14 15 15 16 16 16 16 16 17 17 18 18
4 3 2 4 6 8 10 12 13 13 13 13 13 12 12 11 11 11 11 11 11 11 11 11 11 12 12 13 13 14 15 15 16 16 17 17 17 18 18 18 19 20 20
5 4 4 5 6 8 9 11 12 13 13 13 14 14 13 13 14 14 14 14 14 14 14 15 15 15 15 16 16 16 17 17 18 18 18 18 19 19 20 20 20 21 21
6 6 6 6 7 9 10 11 12 12 13 14 15 16 16 16 16 16 17 17 17 17 18 18 18 18 19 19 19 19 19 19 19 20 20 20 20 21 21 22 22 22 22
9 8 8 8 9 10 11 12 12 13 15 16 17 18 18 18 19 19 19 20 20 20 21 21 21 21 22 22 22 22 22 22 22 22 22 22 23 23 23 23 23 24 24
12 11 11 11 11 11 12 13 14 15 16 18 19 20 20 21 21 22 22 23 23 23 24 24 24 24 25 25 25 25 25 24 24 25 25 25 25 25 25 25 25 26 26
13 13 13 13 13 13 14 15 15 16 18 19 20 21 22 23 24 24 25 25 25 26 26 26 26 27 27 27 27 27 27 27 27 27 27 27 27 28 28 28 28 28 28
16 16 15 16 15 16 16 17 18 19 20 21 22 23 24 25 26 27 27 27 28 28 28 28 29 29 29 29 29 29 29 29 29 29 29 30 30 30 31 31 31 30 30
19 18 18 18 19 19 20 21 22 22 22 23 24 26 26 27 28 28 29 29 30 30 30 30 31 31 31 31 31 31 31 31 31 31 32 32 32 33 33 33 33 33 33
22 22 22 22 23 23 24 24 25 26 26 26 27 28 29 29 30 30 31 31 32 32 32 32 32 31 31 32 33 33 33 34 34 34 34 34 35 35 36 36 36 36 36
25 25 25 25 26 26 27 27 28 28 29 29 30 30 30 31 32 32 33 33 33 33 33 33 33 33 33 34 35 35 36 36 37 37 37 37 38 39 39 38 38 38 38
26 27 28 28 29 29 30 30 30 31 32 32 32 32 32 33 34 35 35 35 34 34 35 35 36 36 36 37 38 39 39 40 40 40 41 41 41 42 42 42 41 41 41
27 29 30 31 31 31 31 32 32 33 34 35 34 34 35 35 35 36 37 37 37 37 38 38 39 39 40 40 42 43 43 43 43 44 44 44 44 45 45 45 44 44 44
26 28 30 31 32 32 33 34 35 35 35 36 37 37 37 38 38 38 38 39 40 41 41 42 42 42 43 44 45 46 47 48 48 48 47 47 47 47 48 48 48 47 47
25 27 29 30 30 31 32 33 35 36 36 36 37 37 37 38 40 41 41 41 41 43 43 44 44 46 47 47 48 50 51 51 52 51 51 51 51 51 51 51 51 51 51
26 27 28 28 29 29 31 32 34 35 36 37 38 38 39 39 40 41 42 43 44 44 45 46 48 49 50 51 52 53 54 55 55 55 56 55 55 55 55 55 54 54 54
25 26 25 26 27 29 31 32 33 34 34 35 37 38 38 38 40 41 43 44 46 47 48 49 50 52 53 54 56 57 58 59 59 59 59 59 60 60 59 58 58 57 55
26 26 27 27 28 28 30 31 32 33 34 35 36 38 39 41 42 43 44 46 47 48 50 52 53 55 56 58 59 60 61 62 63 64 64 64 64 64 63 61 60 59 57
27 28 28 29 29 30 31 32 33 34 36 37 39 40 41 42 43 45 46 48 50 52 54 56 57 59 60 62 63 64 65 66 66 67 67 67 66 65 64 63 62 60 59

GEFSMW_500_meanwind_090.txt.gz
Wind_Speed
9 10 11 12 13 14 15 15 15 14 13 11 10 10 9 7 6 5 3 2 1 1 1 2 3 4 4 5 5 6 6 6 6 6 6 6 6 6 7 7 8 8 9
9 8 10 11 12 13 14 16 15 13 13 11 10 10 9 8 7 5 4 3 3 2 2 2 3 4 5 5 6 6 7 8 8 8 8 7 7 7 7 7 8 8 9
8 7 6 7 9 11 12 14 14 14 14 12 11 9 8 8 7 6 5 4 4 2 2 1 2 3 4 5 6 6 7 8 8 9 8 8 9 9 9 9 9 9 9
9 7 5 5 7 9 11 13 14 14 14 12 11 10 9 8 8 7 6 5 4 3 2 1 1 1 2 3 4 5 7 8 8 9 9 10 10 10 9 9 10 10 10
9 7 4 5 7 8 10 11 13 14 13 12 11 11 11 9 9 8 7 6 5 4 3 2 1 1 2 3 5 6 7 8 9 9 10 11 11 11 11 11 11 11 11
8 7 4 4 6 8 9 11 12 13 12 11 11 12 11 10 10 9 8 7 6 5 4 4 3 3 4 5 6 7 9 9 10 10 11 12 13 13 13 13 12 12 12
8 7 5 4 5 7 9 10 12 11 11 11 11 12 12 11 11 10 9 8 8 7 6 6 6 6 7 8 9 9 10 11 11 12 13 13 14 14 14 14 14 14 14
8 7 6 4 4 6 8 9 10 10 11 11 12 13 13 12 12 11 11 10 10 9 9 9 9 9 10 10 11 12 13 13 14 15 16 16 16 16 16 16 16 16 16
8 7 6 5 4 4 6 8 10 10 11 11 12 13 13 13 13 13 13 12 12 11 11 11 12 12 13 14 15 15 16 17 17 18 18 18 18 18 18 18 18 19 18
8 8 7 5 5 4 6 8 9 10 11 13 13 12 12 13 14 14 14 14 14 14 14 14 15 15 16 17 18 19 19 20 20 20 21 21 21 21 21 21 21 21 21
8 8 8 7 6 6 6 7 9 10 12 12 12 12 13 14 15 15 15 16 16 17 17 17 17 18 19 20 21 22 22 23 23 23 23 23 23 23 23 23 23 23 23
10 10 9 8 7 6 7 7 8 10 11 12 13 14 15 16 16 16 17 18 18 19 19 20 20 21 21 22 23 24 24 25 25 25 25 25 26 26 26 26 26 26 25
12 12 11 10 9 8 8 9 9 10 11 13 14 15 16 17 17 18 19 20 20 21 21 22 23 23 24 25 26 26 26 27 27 27 27 27 27 28 28 28 28 28 28
14 14 13 12 11 11 11 10 11 12 12 13 15 16 17 17 18 19 20 22 23 23 24 24 25 26 27 27 28 28 28 28 29 29 29 29 29 30 30 30 30 31 30
17 16 15 14 13 13 13 14 14 14 15 15 16 17 18 19 20 21 22 23 24 25 26 26 27 28 28 29 30 31 31 31 31 31 31 31 32 32 32 32 32 32 32
18 18 18 18 17 16 17 17 18 18 19 19 20 21 21 22 23 24 24 25 27 28 28 29 29 30 30 31 32 33 33 33 33 33 33 33 33 34 34 34 34 34 34
20 20 20 20 20 20 20 20 21 22 22 23 24 25 25 26 27 27 28 29 30 30 30 31 31 32 32 34 34 35 35 35 35 35 35 35 36 36 36 36 37 37 38
21 22 22 23 23 23 24 24 25 26 26 27 28 29 30 31 31 31 31 32 31 32 32 33 33 34 35 36 37 38 39 38 37 38 38 38 38 39 40 40 40 40 40
22 23 24 24 25 25 26 26 27 29 30 30 30 30 31 33 34 33 33 33 34 35 36 37 37 37 37 38 39 41 41 39 39 40 41 41 41 42 44 44 44 44 43
23 24 24 25 26 27 28 29 29 31 32 32 31 32 32 33 33 34 34 35 35 36 37 38 38 39 39 39 40 41 41 41 40 40 41 42 43 44 45 46 47 47 47
24 25 26 26 27 28 28 29 30 31 32 32 33 34 35 36 36 37 36 36 36 37 38 39 40 41 42 41 41 42 42 43 43 43 44 45 46 47 48 49 49 49 50
25 25 26 27 28 28 29 29 30 32 33 34 34 35 35 36 36 36 35 36 37 38 40 41 42 42 42 42 43 44 44 45 46 47 48 49 51 51 52 52 53 54 55
26 26 26 27 28 29 30 30 30 31 33 34 35 36 35 35 35 36 37 38 38 38 39 40 41 42 42 43 45 46 47 48 49 50 52 53 55 56 56 57 57 58 59
27 28 28 28 29 29 30 31 31 31 32 34 34 34 34 35 36 36 36 37 37 38 40 41 42 43 45 46 47 49 50 52 54 55 57 58 59 60 61 61 62 63 63
29 29 29 29 29 29 29 30 30 31 31 31 32 32 33 34 34 35 36 37 39 41 42 43 44 45 47 49 52 54 55 57 59 60 61 62 63 64 64 65 65 65 65
29 29 29 29 30 30 30 31 31 32 32 32 33 34 35 35 36 37 38 40 41 42 44 45 47 49 52 54 56 58 60 61 63 64 64 65 66 66 67 67 66 65 65

GEFSMW_500_meanwind_096.txt.gz
Wind_Speed
10 9 6 4 6 9 11 12 12 13 13 13 13 12 11 10 9 9 8 7 7 6 6 5 5 4 4 4 5 5 5 5 5 5 5 5 5 5 4 3 2 1 2
10 9 6 3 6 7 10 13 12 12 13 13 13 12 12 11 10 10 9 8 8 7 7 6 6 5 5 5 5 5 5 6 6 6 6 6 6 6 5 4 3 3 2
10 8 6 2 4 7 10 11 11 12 13 13 13 13 13 12 11 11 10 10 9 8 8 7 6 6 5 4 4 4 4 4 5 5 5 5 6 6 6 5 4 4 3
9 8 6 3 3 7 8 10 11 11 13 13 13 13 14 13 13 12 12 11 10 9 9 8 7 6 5 4 3 2 3 3 4 4 4 5 5 5 6 6 5 4 4
8 8 6 4 1 5 7 9 10 11 12 13 13 13 14 14 14 14 13 12 11 10 9 8 8 7 6 4 3 1 1 1 2 3 4 4 4 4 5 5 5 5 4
7 7 6 4 1 3 5 8 10 11 11 13 14 14 14 15 15 15 14 13 12 11 10 9 9 8 7 5 4 3 2 2 3 3 4 4 5 5 5 5 5 6 6
7 7 6 4 1 1 5 7 10 11 11 13 14 15 16 15 15 15 15 14 13 12 11 10 10 9 8 7 6 5 5 5 5 5 6 6 6 6 6 6 7 7 7
5 5 5 4 2 1 4 7 9 10 11 13 14 16 17 16 16 16 16 15 14 13 13 13 12 12 11 10 10 9 8 8 8 8 9 9 9 9 9 9 9 9 9
3 3 3 3 2 1 3 6 9 10 11 12 13 15 15 16 16 16 17 17 16 15 15 15 14 14 14 13 13 12 12 12 12 12 12 12 12 12 12 12 12 12 12
4 3 3 3 3 2 2 5 7 8 11 12 13 14 16 17 17 17 18 18 17 17 17 17 17 17 17 16 16 16 16 16 15 15 15 15 15 15 16 16 16 15 15
4 4 3 3 4 3 2 4 6 8 10 11 13 14 16 17 18 18 19 19 19 19 19 19 19 19 19 19 19 19 19 19 19 19 19 18 18 18 18 19 19 19 19
4 4 4 4 4 4 3 4 5 8 11 12 14 15 17 18 19 19 20 20 21 21 21 21 21 22 22 22 21 22 22 22 22 22 22 21 21 21 21 21 22 22 22
5 5 6 6 6 6 6 6 7 8 10 13 14 16 17 18 19 20 21 21 22 22 23 23 24 24 24 24 24 24 24 24 24 24 24 24 24 24 24 24 24 25 25
6 6 7 8 8 9 9 9 10 10 11 12 13 15 17 18 19 21 22 24 24 24 25 25 26 27 27 27 27 27 27 27 27 27 27 27 27 27 28 27 28 28 28
8 8 8 9 9 10 10 10 11 12 13 14 14 15 18 19 21 22 24 25 26 26 27 27 28 29 29 29 30 30 30 30 30 30 30 30 30 30 31 31 31 31 31
8 9 9 9 10 11 12 12 13 14 15 17 17 19 20 22 23 24 25 26 26 27 27 29 31 31 31 31 32 32 32 32 32 32 32 32 33 34 34 35 35 35 34
10 10 10 11 11 12 14 14 15 17 18 18 20 20 22 23 24 25 25 25 25 27 29 30 32 32 33 33 34 35 34 33 33 33 34 35 35 36 37 37 37 37 37
12 11 12 13 13 14 15 16 17 19 20 21 21 22 21 23 24 24 25 26 26 27 29 29 31 32 33 33 33 34 34 34 34 35 35 35 36 37 38 38 38 38 39
14 14 14 15 15 16 17 17 19 20 21 23 23 23 24 25 25 26 26 27 27 29 31 32 32 31 32 32 33 34 34 34 35 36 36 38 39 39 40 41 41 40 41
15 16 16 18 18 19 19 19 21 22 23 23 23 25 26 27 27 27 27 28 28 28 30 30 31 31 31 32 34 34 35 35 36 37 38 38 40 41 42 43 43 43 43
16 17 18 19 20 21 21 22 23 24 24 25 26 27 27 27 28 28 28 28 28 29 29 30 30 32 32 32 33 34 34 36 37 38 39 40 40 41 43 44 45 45 46
17 19 20 21 21 22 24 24 25 25 26 27 27 28 28 29 30 30 29 29 29 29 30 31 32 33 33 34 36 36 37 37 38 39 40 41 43 44 45 46 48 49 51
19 20 21 22 23 24 25 26 27 28 28 29 29 30 30 30 30 31 31 32 32 32 33 33 35 36 37 38 39 40 41 41 42 42 44 45 46 47 49 51 53 55 56
20 21 22 23 24 26 27 28 29 30 30 31 31 31 32 32 32 32 32 33 33 34 35 36 37 38 39 40 40 41 41 42 44 46 48 49 51 52 53 55 56 58 60
20 22 23 25 26 27 28 29 30 31 32 33 33 33 33 34 34 34 34 34 34 35 36 37 38 39 41 42 44 45 46 47 49 50 52 53 54 55 56 57 59 60 61
21 23 24 25 26 27 29 30 31 31 32 33 33 34 34 35 35 36 36 36 37 38 39 41 42 43 44 46 47 49 50 51 52 53 54 55 55 56 58 59 60 61 62